Hourly Weather Roundup
Issued by NWS Central Illinois

Home | Current Version | Previous Version | Text Only | Print | Product List | Glossary On
Versions: 1 2 3 4 5 6 7 8 9 10 11 12 13 14 15 16 17 18 19 20 21 22 23 24 25 26 27 28 29 30 31 32 33 34 35 36 37 38 39 40 41 42 43 44 45 46 47 48 49 50
000
NZUS43 KILX 191610
HWRILX

AREA WEATHER ROUNDUP
NATIONAL WEATHER SERVICE, LINCOLN IL
1100 AM CDT FRI SEP 19 2014


CITY           SKY/WX    TMP DP  RH WIND       PRES   REMARKS
BLOOMINGTON    SUNNY     68  51  54 S14G21    30.16S
CHAMPAIGN      SUNNY     70  49  47 SE12      30.16S
DECATUR        SUNNY     71  51  49 SE15      30.14F
FLORA          SUNNY     70  53  53 SE8       30.14S
GALESBURG      SUNNY     69  55  59 S13       30.11F
JACKSONVILLE   SUNNY     73  55  52 SE7       30.12F
LACON          SUNNY     69  52  55 S10       30.12F
LAWRENCEVILLE  SUNNY     72  52  49 E10       30.15S
LITCHFIELD     SUNNY     68  57  67 SE6       30.13S
$$


CITY           SKY/WX    TMP DP  RH WIND       PRES   REMARKS
LINCOLN        SUNNY     72  52  49 S10G16    30.11F
MACOMB         SUNNY     70  52  52 S9        30.13F
MATTOON        SUNNY     69  51  52 SE10      30.15S
MT CARMEL AP   SUNNY     73  52  46 SE9       30.14S
OLNEY-NOBLE AP SUNNY     70  52  52 E7        30.13F
PARIS          SUNNY     70  51  50 SE8       30.17S
PEORIA         SUNNY     70  53  54 S8        30.13S
PONTIAC        MOSUNNY   72  52  49 S9        30.15S
RANTOUL        SUNNY     72  46  39 SE12      30.17S
ROBINSON       SUNNY     72  55  55 E12       30.16S
SPRINGFIELD    SUNNY     70  56  61 SE8       30.13F
TAYLORVILLE    SUNNY     70  52  52 S13       30.13F
$$

...REGIONAL REPORTS...


CITY           SKY/WX    TMP DP  RH WIND       PRES   REMARKS
CHICAGO O`HARE MOSUNNY   66  51  58 S13       30.15F
KANKAKEE       MOSUNNY   68  54  60 SE9       30.17F
MOLINE         SUNNY     69  54  58 S13G20    30.09F
MOUNT VERNON   SUNNY     70  55  60 E6        30.14S
PITTSFIELD     SUNNY     72  53  51 SE9       30.11F
QUINCY         SUNNY     70  55  59 S10       30.10F
ROCKFORD       MOSUNNY   68  51  54 S20       30.14F
$$


CITY           SKY/WX    TMP DP  RH WIND       PRES   REMARKS
BURLINGTON     LGT RAIN  69  56  62 S12       30.09F
CEDAR RAPIDS   SUNNY     67  56  67 S16G22    30.05S
DES MOINES     PTSUNNY   70  61  73 S16G28    29.99S
KIRKSVILLE       N/A     70  57  63 S12       30.07
OTTUMWA        SUNNY     69  56  62 S16G22    30.04F
ST LOUIS       MOSUNNY   71  56  58 E7        30.11F
$$


CITY           SKY/WX    TMP DP  RH WIND       PRES   REMARKS
TERRE HAUTE    SUNNY     69  50  50 SE12      30.17R
EVANSVILLE     SUNNY     71  53  52 E8        30.13S
INDIANAPOLIS   MOSUNNY   68  49  50 E13       30.18S
LAFAYETTE      SUNNY     67  53  61 SE7       30.18S
MADISON        MOSUNNY   67  53  61 S14       30.08F
MILWAUKEE      PTSUNNY   67  54  63 S14       30.11F
$$





USA.gov is the U.S. government's official web portal to all federal, state and local government web resources and services.